Location: Newport
(44.6370°N, 124.0520°W)
Time: 04:41:37
(UTC-07:00)

OTV 5 (USA 277) - Pass Details

Date: 13 October 2017
Orbit: 404 x 417 km, 43.0° (Epoch: 07 September)

Event Time Altitude Azimuth Distance (km) Brightness Sun altitude
Rises 20:29:11 0° 261° (W) 2,353 ? -21.2°
Reaches altitude 10° 20:31:18 10° 258° (WSW) 1,491 ? -21.5°
Enters shadow 20:33:59 50° 233° (SW) 538 ? -22.0°
